Regional Weather Roundup
Issued by NWS Green Bay, WI

Home | Current Version | Previous Version | Graphics & Text | Print | Product List | Glossary Off
Versions: 1 2 3 4 5 6 7 8 9 10 11 12 13 14 15 16 17 18 19 20 21 22 23 24 25 26 27 28 29 30 31 32 33 34 35 36 37 38 39 40 41 42 43 44 45 46 47 48 49 50

000
ASUS43 KGRB 221310
RWRGRB

NORTH-CENTRAL AND NORTHEAST WISCONSIN REGIONAL WEATHER ROUNDUP
NATIONAL WEATHER SERVICE GREEN BAY WI
800 AM CDT MON SEP 22 2014

WIZ005-009-010>012-018-019-221400-
NORTH CENTRAL WISCONSIN

CITY           SKY/WX    TMP DP  RH WIND       PRES   REMARKS
IRONWOOD       SUNNY     46  46 100 W5        30.17R
MANITOWISH WTR SUNNY     42  42 100 CALM      30.20R
ARBOR VITAE    SUNNY     44  42  92 CALM      30.20S
EAGLE RIVER    PTSUNNY   41  41 100 CALM      30.20R
LAND O LAKES   CLOUDY    44  43  99 W3        30.20R
RHINELANDER    MOSUNNY   42  40  92 W5        30.21S
PHILLIPS       SUNNY     42  42  99 CALM      30.21S
ANTIGO         SUNNY     39  39  99 CALM      30.22S
TOMAHAWK       SUNNY     39  38  97 CALM      30.22R
MERRILL        SUNNY     39  38  98 CALM      30.22S
$$

WIZ013-073-221400-
NORTHEAST WISCONSIN

CITY           SKY/WX    TMP DP  RH WIND       PRES   REMARKS
IRON MOUNTAIN  CLOUDY    43  39  86 VRB3      30.17R
MARINETTE      SUNNY     41  37  87 W5        30.19S
OCONTO         SUNNY     41  41  99 W6        30.20F
$$

WIZ017-030-035>037-045-221400-
CENTRAL WISCONSIN

CITY           SKY/WX    TMP DP  RH WIND       PRES   REMARKS
MEDFORD        SUNNY     43  43  99 CALM      30.22F
WAUSAU         SUNNY     44  41  89 CALM      30.22S
MOSINEE        SUNNY     45  43  93 W3        30.24S
MARSHFIELD     MOSUNNY   47  44  90 W6        30.23S
WISC RAPIDS    SUNNY     43  42  97 CALM      30.25S
STEVENS POINT  SUNNY     38  37  97 CALM      30.25S
WAUPACA        SUNNY     46  44  91 CALM      30.24S
SHAWANO        SUNNY     44  41  89 W3        30.22S
CLINTONVILLE   SUNNY     43  39  87 W3        30.23S
$$

WIZ038-039-048-051-221400-
FOX VALLEY

CITY           SKY/WX    TMP DP  RH WIND       PRES   REMARKS
NWS GREEN BAY  SUNNY     42  41  96 CALM      30.23R
APPLETON       NOT AVBL
OSHKOSH        SUNNY     45  41  86 W6        30.24R
FOND DU LAC    SUNNY     44  41  89 SW5       30.25R
$$

WIZ022-050-052-221400-
EAST CENTRAL WISCONSIN

CITY           SKY/WX    TMP DP  RH WIND       PRES   REMARKS
STURGEON BAY   SUNNY     45  39  81 S5        30.21S
MANITOWOC      SUNNY     44  41  89 W5        30.23S
SHEBOYGAN      SUNNY     42  41  96 SW3       30.24R
$$

LMZ563-521-522-541>543-221400-
LAKESHORE

STATION/POSITION TIME  TEMP    WIND        PRES    VSBY  WAVE
                       AIR SEA DIR/SP/G                  HT/PER
                 (UTC) (F)     (DEG/KT/KT) (MB)    (MI)  (FT/S)
SHEBOYGAN LKSHOR 1300   45 53  210/  4/  5 1024.6R
KEWAUNEE LKSHORE 1300   44     300/  4/  5 1022.2R
TWO RIVERS CG    1200   41                 1023.6      6   2
NORTHPORT PIER   1300   51     230/  1/  3 1022.4S
N MID LAKE BUOY  1300   49 57  260/ 10/ 14 1022.5R         1/ 3
S GREEN BAY BUOY 1300   48     VRB 10/ 12  1023.7R
STURGEON BAY CG  1200   40 54  280/  4     1022.2      6   1
CHAMBERS ISLAND  1300   49     210/  6/ 10 1022.7R
MENOMINEE LKSHOR 1300   44     250/  8/ 10 1022.9S
$$



USA.gov is the U.S. government's official web portal to all federal, state and local government web resources and services.